Wind_Speed
30 35 45 43 39 34 26 24 29 28 33 27 25 28 30 27 26 28 30 35 35 34 30 31 22 15 9 10 13 11 7 5 12 14 15 20 23 22 23 24 25 27 25 23
33 40 38 38 36 32 30 22 24 25 26 25 26 34 26 21 30 33 28 27 33 31 24 24 25 24 15 11 10 14 13 15 17 18 20 25 27 26 28 29 30 30 28 26
37 30 33 36 38 32 32 26 27 19 28 30 29 29 26 35 23 25 27 32 34 38 31 25 30 33 25 17 15 13 14 17 21 25 31 32 33 33 36 35 33 31 31 29
26 18 27 32 38 36 33 29 20 23 24 15 22 14 34 33 30 30 22 23 22 29 29 26 32 29 34 28 16 13 13 14 16 22 27 31 33 37 39 37 35 33 33 33
23 27 28 26 30 35 32 21 19 21 27 25 23 21 21 27 27 27 27 26 24 26 25 26 30 31 28 28 28 23 22 21 21 22 25 23 26 32 34 36 34 33 35 37
19 22 23 23 25 27 20 20 23 22 27 15 26 29 26 31 30 25 27 24 28 32 30 30 27 30 26 22 26 35 30 24 23 25 25 24 25 28 31 33 33 34 35 35
20 25 27 21 22 27 26 24 7 4 7 5 30 24 31 23 29 27 21 24 31 31 31 29 35 34 32 29 24 24 21 20 21 22 24 26 27 27 27 28 31 32 34 35
23 17 29 24 29 26 29 27 8 5 2 9 19 15 35 35 30 24 21 28 28 32 32 29 34 33 31 25 22 24 21 20 21 23 24 23 24 25 26 26 24 26 30 34
25 22 19 25 23 27 21 28 25 12 5 0 3 10 21 14 27 32 29 36 31 34 39 37 35 30 27 26 21 18 19 21 22 22 20 20 21 21 21 22 22 22 24 25
7 20 18 17 23 28 26 16 13 10 3 4 1 5 13 13 17 23 34 39 31 34 36 33 30 28 25 23 24 23 22 21 18 18 20 21 22 23 24 25 26 27 28 30
30 16 6 19 11 31 27 22 12 23 10 5 3 5 7 11 8 19 43 41 36 32 29 26 22 20 25 27 27 26 27 24 22 24 24 23 24 25 28 31 33 36 37 39
25 10 17 15 22 12 28 26 19 7 6 8 4 8 8 10 6 20 35 35 32 30 27 24 22 22 24 24 24 28 32 32 35 34 29 26 25 26 29 31 32 35 36 37
23 18 12 15 20 9 20 11 20 22 15 10 4 4 17 16 10 29 30 24 26 24 20 19 21 22 20 22 24 28 34 37 39 37 33 29 30 34 35 37 37 37 39 40
17 19 23 17 9 3 7 6 11 24 10 12 10 14 21 17 23 28 29 28 19 18 19 17 14 17 22 26 30 33 36 37 40 41 40 39 39 38 38 39 39 40 40 41
31 19 19 23 21 5 4 6 5 3 5 3 8 13 20 30 30 41 38 29 24 21 21 17 19 20 24 27 30 33 34 39 42 43 44 45 47 49 53 49 46 44 43 43
25 19 24 22 22 14 9 4 10 8 8 14 14 13 11 18 25 28 30 22 12 20 26 24 23 25 27 29 31 35 40 42 45 45 45 46 50 58 58 46 41 40 43 46
25 28 24 9 16 9 11 12 5 3 1 7 11 15 21 17 20 21 22 25 23 19 22 26 29 27 29 33 36 39 41 41 42 46 51 54 59 59 46 42 39 41 44 46
22 25 13 17 17 5 5 16 10 7 11 8 14 22 24 23 25 23 28 26 23 25 24 22 26 31 35 37 38 41 44 47 50 54 59 59 48 43 43 44 45 45 46 46
20 23 15 11 6 9 11 15 23 20 16 18 22 26 27 29 28 25 22 20 19 19 22 25 30 32 34 37 41 46 50 56 60 52 41 43 45 47 47 46 47 46 47 45
22 19 18 23 11 4 13 13 22 17 21 16 23 26 24 21 21 22 21 22 24 25 27 30 34 37 41 46 49 51 50 42 43 44 47 49 50 50 49 48 47 45 41 37
25 20 19 15 5 5 23 27 28 16 17 17 17 19 18 19 19 20 21 23 25 28 31 35 39 42 41 39 39 41 44 46 47 49 51 51 50 50 48 46 41 37 34 33
17 16 21 17 5 6 22 24 22 18 20 18 17 16 17 16 16 18 22 27 30 33 36 36 35 35 38 39 41 43 44 45 47 48 48 47 46 44 40 36 32 29 30 33
19 14 15 13 8 16 20 22 16 16 16 19 20 19 18 19 21 23 26 28 26 27 29 31 32 33 34 36 38 41 43 43 42 41 39 38 36 34 32 26 28 29 31 33
17 14 21 18 15 16 16 14 12 12 14 15 15 17 19 21 22 21 20 24 26 27 26 25 26 29 33 36 38 41 41 40 41 39 33 30 28 23 24 24 26 28 28 31
17 16 20 23 21 20 15 9 7 8 9 7 10 13 13 14 16 18 20 21 21 22 23 24 26 28 29 35 40 41 38 37 33 27 23 20 18 20 22 24 22 24 29 32
17 17 19 24 20 13 16 13 8 6 5 10 11 9 11 14 15 15 16 17 19 21 23 24 26 29 35 39 38 33 30 26 21 16 15 16 19 22 21 19 19 26 26 29
Wind_Direction
183 187 196 193 194 201 206 212 224 224 226 228 234 243 253 235 241 249 255 257 257 241 263 270 259 253 214 202 191 179 204 221 209 229 236 253 269 274 275 277 278 280 285 288
190 200 197 193 198 203 209 218 222 234 226 238 244 249 251 241 233 242 246 248 252 250 250 251 253 259 240 218 196 198 204 210 225 246 250 255 262 268 268 271 270 273 278 280
196 209 197 196 200 207 214 218 223 235 231 245 252 248 242 239 240 240 242 241 240 242 232 241 250 251 251 237 231 233 230 237 244 251 255 263 265 262 263 267 262 262 270 275
204 199 196 198 206 205 220 216 236 238 215 232 233 234 233 249 239 247 252 254 250 249 217 232 245 243 246 244 240 273 260 259 264 266 262 264 263 263 265 265 264 267 273 276
197 195 193 202 214 210 221 216 231 238 244 245 249 233 242 240 243 254 251 258 243 212 210 232 242 240 250 252 244 255 270 257 251 251 253 259 264 263 267 267 268 271 277 277
197 184 196 213 219 211 218 234 243 255 242 227 237 219 239 233 245 261 253 251 234 195 214 230 238 243 247 258 253 256 266 261 261 260 260 262 260 259 261 263 265 266 273 276
209 208 206 212 216 221 226 231 214 222 181 212 235 221 238 243 247 256 248 232 216 197 221 231 233 248 250 254 267 263 260 264 266 265 261 261 264 268 271 270 267 267 267 269
213 230 219 211 220 208 216 231 194 152 206 219 229 211 241 252 254 257 241 216 186 206 219 229 236 243 249 257 264 272 271 275 277 275 271 268 267 267 269 273 274 272 268 268
207 225 219 217 212 226 225 201 225 208 164 239 226 207 239 259 241 252 239 209 203 211 219 225 232 241 244 265 275 273 274 276 278 273 273 272 270 267 268 270 272 270 268 273
226 224 234 233 231 223 226 225 174 185 156 216 180 260 270 275 243 250 218 205 203 199 208 214 226 243 262 272 280 285 293 298 279 272 277 275 273 273 274 274 275 275 275 275
225 256 248 219 200 214 208 198 202 204 195 185 161 255 245 253 299 217 202 198 196 202 209 223 240 259 272 286 294 297 299 297 286 289 289 283 279 276 274 273 274 274 273 272
221 242 236 242 230 241 220 227 221 189 172 201 204 245 274 211 348 219 189 193 200 212 219 230 247 261 276 280 284 290 299 306 308 305 302 302 303 294 286 282 280 278 276 276
208 216 183 256 230 236 203 199 220 237 223 182 113 301 278 216 184 172 170 172 191 196 213 234 250 257 264 276 282 287 294 300 304 307 315 317 317 313 306 301 296 289 287 287
222 208 210 210 193 201 150 168 224 242 221 187 215 231 202 191 192 162 162 161 181 208 228 233 242 272 285 280 282 284 288 296 304 306 309 311 313 313 307 302 295 292 293 293
220 216 217 210 220 225 161 134 163 272 168 180 159 197 198 197 205 207 206 183 173 199 210 232 249 254 257 264 271 278 285 293 297 300 306 306 308 310 312 308 301 295 293 293
192 166 187 184 210 233 254 173 96 133 134 115 120 126 149 182 179 188 179 205 179 204 207 224 240 251 257 263 271 280 288 292 292 294 294 297 298 303 308 305 297 290 286 285
175 155 161 142 184 226 236 214 94 171 249 160 171 151 151 142 158 159 163 170 201 219 234 246 257 262 270 276 280 279 279 278 279 284 289 294 299 303 303 303 300 293 288 286
184 170 138 144 143 146 202 215 199 159 148 145 159 160 160 154 156 160 180 202 220 231 243 254 260 259 259 263 268 273 277 283 288 292 294 299 300 302 304 303 300 298 297 296
207 179 139 147 145 140 153 165 168 183 119 150 156 157 166 167 177 173 177 192 208 218 227 236 245 254 262 270 276 281 285 291 294 298 299 300 301 301 300 300 300 301 300 301
172 189 175 158 160 184 160 170 168 175 124 136 160 162 170 178 190 196 204 213 223 233 242 253 263 271 277 281 284 287 291 294 297 300 301 301 300 300 300 301 302 303 303 303
172 181 191 176 127 163 167 166 167 183 166 172 187 178 180 194 209 217 231 243 254 264 272 278 282 286 290 294 295 296 297 297 297 297 296 296 297 298 299 301 302 302 301 302
167 155 173 168 147 177 184 177 188 182 166 194 202 210 218 229 242 257 272 278 281 286 291 295 296 296 294 293 293 292 293 293 293 293 294 295 295 296 300 302 302 302 301 306
158 167 149 167 172 153 182 195 188 197 208 210 221 235 251 262 270 276 281 287 291 292 292 291 289 289 291 294 296 295 295 296 297 297 296 298 300 301 301 301 303 304 306 307
136 166 145 127 131 156 173 173 187 206 227 238 249 257 263 270 277 283 288 291 291 290 291 292 293 294 295 296 298 299 298 298 298 300 298 299 301 303 302 301 303 306 312 317
147 158 159 149 155 159 163 186 210 220 228 246 272 273 280 289 293 293 290 289 292 294 296 298 298 298 300 302 302 302 300 302 301 300 301 304 303 300 302 310 318 320 321 323
148 162 163 165 177 202 190 190 206 223 255 295 293 294 301 297 293 291 295 299 301 304 306 308 307 305 307 305 304 302 300 303 302 304 304 299 301 300 313 319 320 320 319 323
Height
3065 3068 3065 3075 3082 3087 3093 3099 3104 3108 3113 3117 3119 3121 3124 3132 3134 3136 3138 3141 3145 3151 3149 3146 3149 3152 3154 3155 3156 3156 3157 3162 3166 3165 3165 3169 3170 3170 3170 3169 3166 3162 3162 3161
3064 3060 3069 3078 3083 3088 3092 3096 3100 3107 3110 3114 3115 3118 3121 3126 3128 3130 3133 3136 3138 3144 3146 3143 3144 3146 3149 3152 3154 3155 3156 3158 3160 3162 3166 3168 3168 3165 3163 3163 3160 3157 3155 3154
3057 3061 3070 3075 3080 3084 3088 3091 3098 3104 3109 3111 3113 3114 3116 3120 3124 3126 3128 3130 3132 3135 3142 3140 3140 3142 3144 3147 3151 3153 3154 3155 3157 3159 3161 3161 3160 3157 3155 3155 3152 3152 3150 3148
3060 3064 3068 3071 3075 3082 3084 3091 3097 3102 3106 3104 3108 3109 3110 3114 3116 3118 3120 3122 3125 3129 3132 3134 3135 3137 3141 3144 3145 3147 3148 3149 3150 3151 3150 3149 3149 3148 3144 3144 3146 3146 3143 3142
3055 3060 3064 3068 3072 3080 3083 3092 3095 3099 3100 3102 3103 3107 3105 3109 3109 3109 3113 3116 3120 3124 3127 3129 3130 3131 3135 3140 3144 3144 3145 3145 3146 3147 3146 3144 3142 3139 3137 3137 3139 3139 3137 3136
3056 3060 3065 3068 3073 3078 3084 3089 3093 3096 3098 3101 3100 3102 3099 3102 3101 3102 3105 3110 3115 3120 3121 3124 3125 3127 3130 3134 3137 3138 3137 3138 3139 3138 3137 3136 3135 3133 3132 3132 3131 3131 3129 3127
3055 3057 3061 3067 3072 3075 3081 3085 3090 3094 3094 3097 3096 3099 3094 3094 3097 3100 3102 3105 3109 3114 3115 3119 3123 3125 3126 3129 3131 3130 3129 3131 3131 3130 3129 3129 3128 3126 3124 3123 3123 3121 3121 3119
3053 3055 3057 3061 3067 3072 3077 3080 3083 3090 3095 3089 3090 3090 3087 3092 3094 3097 3100 3102 3105 3109 3112 3115 3119 3121 3124 3126 3126 3126 3125 3124 3124 3124 3123 3123 3122 3121 3118 3116 3115 3112 3111 3111
3049 3053 3055 3058 3061 3067 3073 3074 3080 3083 3085 3085 3087 3086 3086 3084 3086 3088 3092 3098 3102 3104 3108 3112 3115 3117 3118 3120 3121 3122 3121 3120 3119 3118 3117 3116 3114 3113 3112 3110 3109 3107 3106 3104
3046 3050 3053 3056 3060 3063 3066 3073 3076 3078 3086 3088 3084 3083 3082 3080 3078 3082 3084 3091 3097 3103 3106 3109 3111 3112 3113 3115 3116 3117 3116 3115 3115 3115 3114 3112 3110 3108 3107 3106 3102 3102 3099 3096
3043 3049 3051 3053 3055 3059 3064 3065 3068 3072 3077 3078 3083 3080 3079 3079 3076 3080 3085 3088 3094 3101 3104 3106 3108 3109 3109 3110 3111 3111 3110 3111 3111 3110 3109 3108 3105 3102 3100 3098 3095 3094 3092 3088
3043 3047 3048 3049 3054 3055 3060 3063 3066 3070 3074 3074 3075 3075 3075 3078 3079 3084 3090 3091 3095 3097 3100 3103 3105 3106 3108 3108 3107 3105 3104 3104 3103 3103 3102 3100 3097 3094 3093 3090 3087 3084 3081 3080
3041 3045 3046 3049 3054 3055 3057 3059 3063 3065 3067 3068 3071 3073 3075 3080 3085 3084 3085 3091 3093 3096 3100 3101 3103 3104 3105 3104 3103 3102 3100 3098 3096 3096 3095 3093 3090 3086 3083 3079 3076 3074 3070 3069
3038 3040 3043 3047 3052 3056 3055 3057 3060 3062 3064 3064 3068 3070 3072 3075 3079 3081 3085 3087 3095 3096 3098 3100 3100 3101 3101 3100 3099 3097 3096 3094 3091 3089 3088 3086 3083 3079 3076 3072 3068 3065 3062 3059
3033 3035 3041 3045 3049 3053 3055 3057 3059 3061 3062 3064 3065 3067 3067 3071 3076 3080 3083 3086 3090 3095 3098 3098 3098 3098 3098 3097 3095 3094 3091 3088 3086 3083 3080 3077 3073 3069 3066 3063 3058 3054 3051 3048
3029 3032 3038 3041 3046 3051 3056 3056 3059 3060 3060 3062 3065 3067 3070 3073 3075 3078 3084 3087 3090 3094 3094 3094 3094 3094 3094 3093 3091 3088 3085 3082 3078 3075 3072 3069 3065 3062 3058 3052 3047 3043 3039 3035
3025 3030 3037 3043 3048 3055 3056 3055 3057 3060 3062 3061 3064 3066 3072 3073 3076 3079 3081 3083 3090 3090 3092 3093 3092 3091 3089 3086 3083 3081 3077 3073 3070 3067 3063 3060 3056 3051 3046 3041 3036 3031 3026 3022
3025 3029 3034 3044 3048 3055 3054 3053 3058 3061 3062 3062 3061 3064 3068 3070 3074 3078 3083 3085 3086 3086 3086 3087 3087 3085 3081 3078 3075 3073 3069 3067 3064 3060 3055 3050 3044 3040 3035 3030 3025 3020 3015 3010
3025 3028 3034 3042 3047 3051 3051 3054 3055 3057 3063 3063 3062 3065 3068 3070 3073 3076 3079 3081 3083 3083 3082 3081 3078 3077 3075 3074 3070 3067 3063 3058 3054 3049 3044 3040 3035 3029 3025 3019 3013 3009 3002 2998
3021 3029 3033 3043 3048 3049 3050 3050 3054 3058 3063 3066 3065 3066 3068 3070 3073 3075 3076 3076 3077 3077 3078 3077 3075 3073 3071 3068 3064 3059 3054 3049 3045 3040 3034 3029 3023 3018 3012 3007 3002 2997 2991 2986
3017 3024 3031 3038 3042 3046 3046 3049 3051 3055 3064 3063 3065 3066 3068 3069 3071 3070 3071 3072 3074 3073 3072 3070 3067 3064 3060 3056 3051 3047 3042 3038 3033 3028 3023 3018 3013 3008 3002 2997 2993 2987 2982 2978
3016 3024 3033 3039 3040 3042 3043 3047 3050 3052 3056 3061 3063 3065 3066 3067 3068 3067 3067 3068 3067 3066 3063 3059 3055 3052 3049 3045 3040 3036 3031 3027 3022 3017 3013 3008 3003 2998 2993 2988 2984 2979 2975 2970
3020 3025 3029 3035 3039 3038 3041 3045 3048 3052 3056 3058 3060 3062 3063 3064 3064 3065 3064 3062 3060 3058 3055 3052 3047 3043 3038 3034 3030 3026 3021 3016 3011 3006 3002 2997 2993 2988 2984 2981 2977 2972 2967 2963
3021 3025 3028 3032 3040 3040 3043 3046 3050 3053 3055 3057 3060 3060 3061 3061 3060 3059 3058 3055 3052 3049 3046 3043 3040 3037 3032 3027 3021 3015 3009 3005 3000 2996 2992 2989 2985 2982 2978 2974 2970 2966 2961 2956
3020 3025 3027 3032 3039 3041 3045 3050 3052 3052 3054 3055 3056 3056 3056 3056 3055 3053 3051 3048 3046 3043 3041 3037 3034 3030 3025 3019 3012 3005 3000 2995 2991 2988 2985 2982 2980 2977 2974 2969 2965 2961 2954 2948
3022 3022 3028 3032 3037 3041 3044 3048 3050 3051 3052 3052 3052 3053 3053 3051 3050 3048 3046 3044 3041 3038 3034 3031 3027 3022 3016 3008 3001 2996 2992 2988 2985 2982 2981 2978 2976 2972 2968 2965 2961 2955 2950 2944